Fort Benning, AL

4:20 AM CDT on June 26, 2017 (GMT -0500)
Lawson Army Air Field

Weather History for KLSF - July, 2013

Change the Weather History Date:

Friday, July 19, 2013

  Actual Average Record
Temperature  
Mean Temperature 80 °F -  
Max Temperature 93 °F 89 °F 102 °F (2000)
Min Temperature 68 °F 68 °F 66 °F (2001)
Cooling Degree Days 14    
Growing Degree Days 30 (Base 50)    
Moisture  
Dew Point 72 °F    
Average Humidity 92    
Maximum Humidity 100    
Minimum Humidity 49    
Precipitation  
Precipitation 0.00 in - - ()
Sea Level Pressure  
Sea Level Pressure 30.07 in    
Wind  
Wind Speed 1 mph (West)    
Max Wind Speed 16 mph    
Max Gust Speed 22 mph    
Visibility 6 miles    
Events Fog , Rain    
Averages and records for this station are not official NWS values.
T = Trace of Precipitation, MM = Missing Value Source: NWS Daily Summary

Daily Weather History Graph

Daily Weather History Graph

Search for Another Location

Airport or City:

Trip Planner

Search our weather history database for the weather conditions in past years. The results will help you decide how hot, cold, wet, or windy it might be!

Date:

Astronomy

Jul. 19, 2013 Rise Set
Actual Time 6:46 AM EDT 8:45 PM EDT
Civil Twilight 6:18 AM EDT 9:13 PM EDT
Nautical Twilight 5:45 AM EDT 9:46 PM EDT
Astronomical Twilight 5:09 AM EDT 10:22 PM EDT
Moon 5:47 PM EDT (7/19) 3:25 AM EDT (7/19)
Length of Visible Light 14h 54m
Length of Day
13h 59m
Waxing Gibbous, 86% of the Moon is Illuminated
Jul 19
Waxing Gibbous
Jul 22
Full
Jul 29
Last Quarter
Aug 6
New
Aug 14
First Quarter

Hourly Weather History & Observations

Time (EDT) Temp. Heat Index Dew Point Humidity Pressure Visibility Wind Dir Wind Speed Gust Speed Precip Events Conditions
12:01 AM 75.2 °F - 75.2 °F 100% 30.10 in 10.0 mi SSW 2.3 mph - N/A   Clear
12:58 AM 74.1 °F - 73.9 °F 99% 30.09 in 10.0 mi Calm Calm - 0.00 in   Clear
1:13 AM 73.4 °F - 73.4 °F 100% 30.09 in 9.0 mi Calm Calm - N/A   Clear
1:23 AM 73.4 °F - 73.4 °F 100% 30.09 in 9.0 mi Calm Calm - N/A   Clear
1:28 AM 73.4 °F - 73.4 °F 100% 30.09 in 7.0 mi Calm Calm - N/A   Clear
1:53 AM 73.4 °F - 73.4 °F 100% 30.09 in 3.0 mi Calm Calm - N/A   Clear
1:58 AM 73.6 °F - 73.2 °F 99% 30.09 in 2.5 mi Calm Calm - N/A   Clear
2:03 AM 73.4 °F - 73.4 °F 100% 30.09 in 7.0 mi Calm Calm - N/A   Clear
2:08 AM 73.4 °F - 73.4 °F 100% 30.09 in 10.0 mi Calm Calm - N/A   Clear
2:13 AM 73.4 °F - 73.4 °F 100% 30.09 in 5.0 mi Calm Calm - N/A   Clear
2:18 AM 73.4 °F - 73.4 °F 100% 30.09 in 1.5 mi South 2.3 mph - N/A   Clear
2:23 AM 73.4 °F - 73.4 °F 100% 30.09 in 0.8 mi SSW 3.5 mph - N/A   Clear
2:28 AM 73.4 °F - 73.4 °F 100% 30.09 in 0.5 mi Calm Calm - N/A Fog Fog
2:43 AM 73.4 °F - 71.6 °F 94% 30.08 in 1.0 mi Calm Calm - N/A   Clear
2:48 AM 71.6 °F - 71.6 °F 100% 30.08 in 5.0 mi Calm Calm - N/A   Clear
2:53 AM 71.6 °F - 71.6 °F 100% 30.07 in 10.0 mi Calm Calm - N/A   Clear
2:58 AM 72.3 °F - 72.3 °F 100% 30.07 in 10.0 mi Calm Calm - N/A   Clear
3:08 AM 71.6 °F - 71.6 °F 100% 30.07 in 4.0 mi Calm Calm - N/A   Clear
3:13 AM 71.6 °F - 71.6 °F 100% 30.07 in 3.0 mi Calm Calm - N/A   Clear
3:18 AM 71.6 °F - 71.6 °F 100% 30.07 in 8.0 mi Calm Calm - N/A   Clear
3:23 AM 71.6 °F - 71.6 °F 100% 30.07 in 10.0 mi Calm Calm - N/A   Clear
3:33 AM 71.6 °F - 71.6 °F 100% 30.07 in 3.0 mi Calm Calm - N/A   Clear
3:38 AM 71.6 °F - 71.6 °F 100% 30.07 in 2.0 mi West 2.3 mph - N/A   Clear
3:43 AM 71.6 °F - 71.6 °F 100% 30.07 in 1.2 mi Calm Calm - N/A   Clear
3:48 AM 71.6 °F - 71.6 °F 100% 30.07 in 1.0 mi Calm Calm - N/A   Clear
3:53 AM 71.6 °F - 71.6 °F 100% 30.07 in 1.5 mi Calm Calm - N/A   Clear
3:58 AM 71.8 °F - 71.8 °F 100% 30.06 in 6.0 mi Calm Calm - N/A   Clear
4:13 AM 71.6 °F - 71.6 °F 100% 30.07 in 9.0 mi NNE 2.3 mph - N/A   Partly Cloudy
4:28 AM 71.6 °F - 71.6 °F 100% 30.06 in 6.0 mi Calm Calm - N/A   Partly Cloudy
4:38 AM 71.6 °F - 71.6 °F 100% 30.06 in 1.5 mi Calm Calm - N/A   Partly Cloudy
4:43 AM 71.6 °F - 71.6 °F 100% 30.06 in 0.8 mi Calm Calm - N/A   Partly Cloudy
4:48 AM 69.8 °F - 69.8 °F 100% 30.06 in 0.5 mi Calm Calm - N/A Fog Fog
4:58 AM 70.9 °F - 70.9 °F 100% 30.06 in 0.8 mi Calm Calm - N/A   Clear
5:03 AM 71.6 °F - 71.6 °F 100% 30.06 in 1.2 mi Calm Calm - N/A   Clear
5:08 AM 71.6 °F - 71.6 °F 100% 30.06 in 1.0 mi Calm Calm - N/A   Clear
5:13 AM 71.6 °F - 71.6 °F 100% 30.06 in 0.5 mi Calm Calm - N/A Fog Fog
5:18 AM 71.6 °F - 71.6 °F 100% 30.06 in 0.5 mi Calm Calm - N/A Fog Fog
5:28 AM 71.6 °F - 71.6 °F 100% 30.06 in 0.8 mi NNW 2.3 mph - N/A   Clear
5:33 AM 69.8 °F - 69.8 °F 100% 30.06 in 5.0 mi North 2.3 mph - N/A   Clear
5:38 AM 69.8 °F - 69.8 °F 100% 30.06 in 9.0 mi NNW 2.3 mph - N/A   Clear
5:48 AM 68.0 °F - 68.0 °F 100% 30.06 in 10.0 mi NNW 2.3 mph - N/A   Clear
5:58 AM 69.4 °F - 69.1 °F 99% 30.07 in 10.0 mi NW 1.2 mph - N/A   Clear
6:03 AM 69.8 °F - 69.8 °F 100% 30.07 in 7.0 mi Variable 3.5 mph - N/A   Clear
6:08 AM 69.8 °F - 69.8 °F 100% 30.07 in 1.0 mi WNW 1.2 mph - N/A   Clear
6:13 AM 69.8 °F - 69.8 °F 100% 30.07 in 0.5 mi SW 2.3 mph - N/A Fog Fog
6:38 AM 69.8 °F - 69.8 °F 100% 30.07 in 0.5 mi Calm Calm - N/A Fog Fog
6:43 AM 69.8 °F - 69.8 °F 100% 30.08 in 0.2 mi Calm Calm - N/A Fog Fog
6:48 AM 69.8 °F - 69.8 °F 100% 30.08 in 0.2 mi Calm Calm - N/A Fog Fog
6:53 AM 69.8 °F - 69.8 °F 100% 30.08 in 0.2 mi Calm Calm - N/A Fog Fog
6:58 AM 69.8 °F - 69.8 °F 100% 30.09 in 0.2 mi Calm Calm - N/A Fog Fog
7:03 AM 69.8 °F - 69.8 °F 100% 30.08 in 1.0 mi Calm Calm - N/A   Clear
7:08 AM 69.8 °F - 68.0 °F 94% 30.08 in 7.0 mi Calm Calm - N/A   Clear
7:38 AM 71.6 °F - 71.6 °F 100% 30.08 in 10.0 mi Calm Calm - N/A Rain Light Rain
7:53 AM 71.6 °F - 71.6 °F 100% 30.09 in 10.0 mi Variable 1.2 mph - N/A   Clear
7:58 AM 72.5 °F - 72.5 °F 100% 30.09 in 10.0 mi NNW 2.3 mph - 0.00 in   Clear
8:58 AM 77.2 °F - 74.5 °F 91% 30.12 in 10.0 mi NW 2.3 mph - N/A   Clear
9:58 AM 81.5 °F 87.2 °F 73.9 °F 78% 30.12 in 10.0 mi North 2.3 mph - N/A   Clear
10:58 AM 85.8 °F 91.1 °F 70.9 °F 61% 30.11 in 10.0 mi North 3.5 mph - N/A   Clear
11:58 AM 87.1 °F 91.6 °F 69.6 °F 56% 30.10 in 10.0 mi Variable 3.5 mph - N/A   Clear
12:38 PM 89.6 °F 94.7 °F 69.8 °F 52% 30.09 in 10.0 mi North 3.5 mph - N/A   Mostly Cloudy
12:58 PM 90.1 °F 95.3 °F 70.0 °F 51% 30.09 in 10.0 mi Variable 3.5 mph - N/A   Mostly Cloudy
1:08 PM 89.6 °F 94.7 °F 69.8 °F 52% 30.08 in 10.0 mi West 4.6 mph - N/A   Mostly Cloudy
1:58 PM 90.0 °F 96.4 °F 71.1 °F 54% 30.06 in 10.0 mi Variable 2.3 mph - N/A   Clear
2:58 PM 91.2 °F 98.0 °F 71.4 °F 52% 30.04 in 10.0 mi Variable 3.5 mph - N/A   Partly Cloudy
3:58 PM 91.2 °F 98.0 °F 71.4 °F 52% 30.01 in 10.0 mi Variable 2.3 mph - N/A   Clear
4:58 PM 91.9 °F 97.9 °F 70.2 °F 49% 29.99 in 10.0 mi SW 3.5 mph - N/A   Scattered Clouds
5:58 PM 91.8 °F 100.3 °F 73.2 °F 54% 29.99 in 10.0 mi South 2.3 mph - N/A   Overcast
6:58 PM 83.3 °F 89.0 °F 72.5 °F 70% 30.01 in 10.0 mi SSE 16.1 mph - N/A   Overcast
7:03 PM 80.6 °F 85.4 °F 73.4 °F 79% 30.01 in 10.0 mi SSE 15.0 mph 21.9 mph N/A   Overcast
7:58 PM 77.2 °F - 72.3 °F 85% 30.01 in 10.0 mi West 6.9 mph - N/A   Mostly Cloudy
8:58 PM 76.1 °F - 73.4 °F 91% 30.01 in 10.0 mi Variable 1.2 mph - N/A   Mostly Cloudy
9:50 PM 75.2 °F - 73.4 °F 94% 30.02 in 10.0 mi Calm Calm - N/A Rain Light Rain
9:58 PM 75.6 °F - 73.9 °F 95% 30.02 in 10.0 mi Calm Calm - 0.00 in Rain Light Rain
10:08 PM 75.2 °F - 73.4 °F 94% 30.02 in 10.0 mi SSE 2.3 mph - N/A   Clear
10:58 PM 74.5 °F - 73.6 °F 97% 30.04 in 10.0 mi South 3.5 mph - 0.00 in   Clear
11:49 PM 73.4 °F - 73.4 °F 100% 30.05 in 10.0 mi Calm Calm - N/A Rain Light Rain
11:58 PM 73.4 °F - 73.0 °F 99% 30.05 in 10.0 mi ESE 1.2 mph - 0.00 in Rain Light Rain